OpenBCM V1.08-5-g2f4a (Linux)

Packet Radio Mailbox

IZ3LSV

[San Dona' di P. JN]

 Login: GUEST





  
I0OJJ  > KEPS     20.09.25 01:28l 313 Lines 14851 Bytes #132 (0) @ AMSAT
BID : ORB25263.1
Read: GUEST
Subj: 2Line Orbital Elements 25263.AMSAT
Path: IZ3LSV<IK6IHL<IK7NXU<HB9ON<DK0WUE<ZL2BAU<VK2RZ<IR0AAB<I0OJJ
Sent: 250920/0025z @:I0OJJ.ITA.EU [Rome] obcm1.08-10-g596e
From: I0OJJ @ I0OJJ.ITA.EU (Gustavo)
To:   KEPS @ AMSAT
X-Info: This message was generated automatically


QST de W1STR

AMSAT Orbital Elements for Amateur Satellites in TLE Format
From Orbital Analysis Office
New England Sci-Tech STEM Education Center
Natick MA September 20, 2025
To all radio amateurs


These element sets describe the orbits of various satellites 
in use by the amateur radio community. For details see:
www.amsat.org/keplerian-elements-formats/

A daily update of element sets is available at:
www.amsat.org/tle/daily-bulletin.txt
or without bulletin text:
www.amsat.org/tle/dailytle.txt


AO-07
1 07530U 74089B   25262.64106029 -.00000026  00000-0  12950-3 0  9997
2 07530 101.9986 268.0061 0011914 288.3452 192.0824 12.53691642326615
UO-11
1 14781U 84021B   25262.44172372  .00001620  00000-0  17497-3 0  9993
2 14781  97.7667 226.8711 0008040  12.2646 347.8766 14.89681808216806
AO-27
1 22825U 93061C   25262.59539497  .00000096  00000-0  53568-4 0  9992
2 22825  98.7269 324.6119 0008662 166.8873 193.2536 14.30829836668305
FO-29
1 24278U 96046B   25262.56230773 -.00000003  00000-0  30430-4 0  9996
2 24278  98.5577 142.9622 0350908  78.3612 285.6685 13.53253775436569
NOAA-15
1 25338U 98030A   25262.55124972  .00000140  00000-0  75021-4 0  9997
2 25338  98.5317 285.2109 0011294  63.9100 296.3242 14.27017747422690
GO-32
1 25397U 98043D   25262.55154508  .00000079  00000-0  54375-4 0  9994
2 25397  98.9824 243.8525 0000288 312.0008  48.1145 14.24339672412808
ISS
1 25544U 98067A   25262.50855494  .00014322  00000-0  25472-3 0  9992
2 25544  51.6334 199.5670 0004395 356.4976   3.5981 15.50411591529792
NO-44
1 26931U 01043C   25262.35488559  .00000169  00000-0  94337-4 0  9999
2 26931  67.0498 224.6866 0007074 275.1021  84.9274 14.31780304251673
SO-50
1 27607U 02058C   25262.05959371  .00001822  00000-0  23949-3 0  9996
2 27607  64.5511 247.2207 0066600 312.7419  46.8092 14.81899284224264
CO-55
1 27844U 03031E   25262.56107183  .00000316  00000-0  15660-3 0  9991
2 27844  98.6792 269.5351 0008480 249.3221 110.7049 14.24070397153156
CO-57
1 27848U 03031J   25262.55745730  .00000264  00000-0  13546-3 0  9993
2 27848  98.6822 269.4595 0008320 269.3725  90.6501 14.23394616152876
RS-22
1 27939U 03042A   25262.60406550  .00001156  00000-0  18989-3 0  9993
2 27939  98.3370  74.5930 0012278  50.6091  24.1879 14.72594806175719
CO-58
1 28895U 05043F   25262.33509945  .00001673  00000-0  27857-3 0  9998
2 28895  98.2641  48.0596 0014084 349.0637  11.0261 14.71353773 61903
CO-65
1 32785U 08021C   25262.53719727  .00005996  00000-0  42149-3 0  9996
2 32785  97.7964 234.5808 0008251 218.8357 141.2277 15.05454752944413
CO-66
1 32791U 08021J   25262.49070256  .00013860  00000-0  62370-3 0  9992
2 32791  97.7370 245.0254 0004809 140.1404 220.0185 15.21207175945977
RS-30
1 32953U 08025A   25262.69075851  .00000010  00000-0  56324-6 0  9992
2 32953  82.5067 163.6935 0018710 179.6543 180.4553 12.43168089786084
NOAA-19
1 33591U 09005A   25262.56770482  .00000084  00000-0  68519-4 0  9996
2 33591  98.9882 327.8012 0014756  77.1906 283.0914 14.13408042856253
SRMSAT
1 37841U 11058D   25262.32189562  .00000419  00000-0  83907-4 0  9996
2 37841  19.9714 258.8539 0011967 104.0296 284.4293 14.11465495719506
ZACUBE-1
1 39417U 13066B   25262.44853036  .00004916  00000-0  41736-3 0  9994
2 39417  97.7910 219.0303 0045666  72.2012 288.4185 14.97559243640159
Delfi-N3xt
1 39428U 13066N   25262.50914699  .00008974  00000-0  88393-3 0  9994
2 39428  97.8289 179.0676 0083821  25.8712 334.6660 14.89644794634247
GOMX-1
1 39430U 13066Q   25262.53582804  .00001915  00000-0  30167-3 0  9993
2 39430  97.6714 114.9146 0130497 225.6217 133.4243 14.68013912630183
LO-74
1 39440U 13066AA  25262.39876410  .00003822  00000-0  38223-3 0  9997
2 39440  97.8558 206.3336 0060255 202.2694 157.5906 14.90698310636605
AO-73
1 39444U 13066AE  25262.47780322  .00008132  00000-0  58592-3 0  9996
2 39444  97.7925 224.9203 0042821  45.1662 315.3029 15.03692508638894
DTUSAT-2
1 40030U 14033W   25262.48458530  .00007790  00000-0  48815-3 0  9994
2 40030  98.0660 239.3815 0011022  78.8829 281.3637 15.09608341611765
EO-80
1 40032U 14033Y   25262.49948863  .00007817  00000-0  48878-3 0  9999
2 40032  98.0534 238.9099 0009190  29.4073 330.7670 15.09698729611745
LILACSAT-2
1 40908U 15049K   25262.62423341  .00012256  00000-0  29615-3 0  9994
2 40908  97.5025 285.5771 0010098 143.5315 216.6621 15.41263046553937
IO-86
1 40931U 15052B   25151.18580175  .00001241  00000-0  78118-4 0  9996
2 40931   6.0006  24.0987 0012733 338.8432  21.1169 14.78805930523159
Horyu-4
1 41340U 16012D   25262.43017100  .00028943  00000-0  65966-3 0  9996
2 41340  30.9955 164.8193 0005590  28.7602 331.3352 15.41673086528490
Lapan A3
1 41603U 16040E   25262.64648900  .00003558  00000-0  12281-3 0  9997
2 41603  97.1418 263.3163 0008777 263.5252  96.4990 15.30555581513390
CAS-2T
1 41847U 16066G   25262.49924667  .00001282  00000-0  19170-3 0  9991
2 41847  98.4127 336.0536 0344367 229.9612 127.0900 14.43725340465727
CAS-4B
1 42759U 17034B   25262.66620181  .00233502  00000-0  89409-3 0  9997
2 42759  43.0001  65.9353 0024359 297.2384  62.6008 15.85560832458660
CAS-4A
1 42761U 17034D   25262.50336519  .00282967  37153-4  91727-3 0  9990
2 42761  43.0032  62.2443 0024642 302.6304  57.2193 15.89496390458672
TechnoSat
1 42829U 17042E   25262.50516918  .00002796  00000-0  21510-3 0  9997
2 42829  97.4007  66.4333 0016142 301.3891  58.5755 15.02374773446028
AO-91
1 43017U 17073E   25262.61605684  .00007249  00000-0  36036-3 0  9999
2 43017  97.5082 130.8336 0167911 177.8826 182.3151 15.06365725424568
S-Net D
1 43186U 18014G   25262.13283033  .00005106  00000-0  29440-3 0  9990
2 43186  97.5504 164.0002 0007239 227.6294 132.4324 15.12799738417722
S-Net B
1 43187U 18014H   25262.47030883  .00005300  00000-0  30557-3 0  9998
2 43187  97.5511 164.3110 0008098 221.3414 138.7205 15.12781262417778
S-Net A
1 43188U 18014J   25262.52972000  .00005080  00000-0  29284-3 0  9991
2 43188  97.5519 164.5338 0007949 221.5367 138.5261 15.12809352417786
S-Net C
1 43189U 18014K   25262.60525171  .00005373  00000-0  30964-3 0  9996
2 43189  97.5535 164.6401 0009660 214.5335 145.5269 15.12778273416340
Ten-Koh
1 43677U 18084G   25262.47220087  .00002100  00000-0  16947-3 0  9998
2 43677  98.0796  78.7688 0006059 277.8342  82.2193 15.01033247375528
PO-101
1 43678U 18084H   25262.68447333  .00001827  00000-0  15698-3 0  9994
2 43678  98.1073  82.7756 0008271 311.6312  48.4200 14.98772820375672
QO-100
1 43700U 18090A   25262.58631838  .00000000  00000-0  00000-0 0  9991
2 43700   0.0266 179.5396 0001262  30.4269  25.6554  1.00268498 24961
MinXSS-2
1 43758U 18099A   25261.89162076  .00018988  00000-0  67609-3 0  9994
2 43758  97.4923 328.4139 0011994 153.9942 206.1903 15.28926212372438
AO-95
1 43770U 18099N   25262.42296431  .00009003  00000-0  43250-3 0  9995
2 43770  97.4820 319.4436 0009713 209.1641 150.9052 15.19026716372008
SNUSat 2
1 43782U 18099AA  25262.56743303  .00007987  00000-0  41787-3 0  9990
2 43782  97.4500 315.4839 0012602 154.5886 205.5969 15.16042644371945
SnugLite
1 43784U 18099AC  25261.70608767  .00009367  00000-0  44577-3 0  9995
2 43784  97.4316 314.4263 0004408 145.3952 214.7570 15.19368396371981
ITASat 1
1 43786U 18099AE  25262.09707242  .00006977  00000-0  38525-3 0  9998
2 43786  97.4471 314.2212 0013418 209.2285 150.8198 15.14164762371811
EAGLET 1
1 43790U 18099AJ  25262.57377856  .00004218  00000-0  26402-3 0  9997
2 43790  97.4664 314.2820 0011646 192.1379 167.9572 15.09871935371456
ESEO
1 43792U 18099AL  25262.61018892  .00002486  00000-0  18901-3 0  9996
2 43792  97.4368 306.1854 0012515 172.2228 187.9194 15.02963994371142
JO-97
1 43803U 18099AX  25261.70998149  .00012224  00000-0  52044-3 0  9997
2 43803  97.4566 319.9746 0008345 144.0330 216.1470 15.23099881372156
Suomi 100
1 43804U 18099AY  25262.42493259  .00010189  00000-0  47117-3 0  9993
2 43804  97.4632 319.6651 0013030 147.7442 212.4593 15.20275064372166
ISAT
1 43879U 18111D   25262.21076840  .00022563  00000-0  68556-3 0  9999
2 43879  97.5877 179.0787 0007653 175.2646 184.8670 15.34045917369255
UWE-4
1 43880U 18111E   25262.48701625  .00016672  00000-0  59325-3 0  9994
2 43880  97.5821 177.0600 0009921 198.2959 161.7925 15.29000462369189
Sparrow
1 43881U 18111F   25262.23324659  .00024501  00000-0  70886-3 0  9991
2 43881  97.6044 182.4058 0004160 208.2318 151.8700 15.35597109369363
Prox-1
1 44339U 19036A   25261.01939524  .00012024  00000-0  14470-2 0  9998
2 44339  23.9957 121.0879 0006659 135.4478 224.6556 14.82010547332927
Taurus 1
1 44530U 19059C   25262.66968148  .00006371  00000-0  11429-2 0  9991
2 44530  98.6174  47.0540 0009486  82.0829 278.1450 14.67081305318902
Duchifat 3
1 44854U 19089C   25262.51988167  .00081261  00000-0  10567-2 0  9993
2 44854  36.9374  62.5404 0006328  31.8970 328.2172 15.57597779318859
TO-108
1 44881U 19093C   25262.66254361  .00000915  00000-0  11127-3 0  9997
2 44881  97.7849 336.1501 0012366 254.7708 105.2141 14.85797599311239
FloripaSat 1
1 44885U 19093G   25262.54878850  .00005164  00000-0  42468-3 0  9996
2 44885  97.8167 350.4153 0008676 223.3091 136.7450 14.99555856312028
RS-44
1 44909U 19096E   25262.42384678  .00000026  00000-0  53164-4 0  9991
2 44909  82.5246 159.6338 0218468  57.5618 304.6406 12.79743581267714
UPMSat 2
1 46276U 20061E   25262.18930267  .00256129  26625-4  76198-3 0  9991
2 46276  97.2287 341.2456 0003473 222.1512 137.9496 15.92448689281487
SALSAT
1 46495U 20068K   25262.49299546  .00007740  00000-0  32049-3 0  9998
2 46495  97.8707 245.3864 0011710 158.0993 202.0746 15.24171121274048
